Hourly Data Report for July 18, 2021

GORE BAY CLIMATE
ONTARIO
Current Station Operator: ECCC - MSC

45°53'00.000" N
82°34'00.000" W
188.60 m
6092920
71956
TZE

Download Data

Hourly Data (July 2021)
Hourly Data Report for July 18, 2021
TIME
LST
Temp Definition
°C
Dew Point Definition
°C
Rel Hum Definition
%
Precip. Amount Definition
mm

Wind Dir Definition
10's deg

Wind Spd Definition
km/h
Visibility Definition
km
Stn Press Definition
kPa
Hmdx Definition


Wind Chill Definition


Weather Definition


00:00 20.8 13.9 65 0.0 36 11   99.86     LegendNANA
01:00 20.3 14.3 68 0.0 33 9   99.87     LegendNANA
02:00 18.9 15.9 82 0.0 31 5   99.85     LegendNANA
03:00 19.1 16.5 85 0.0 31 6   99.87     LegendNANA
04:00 18.7 15.9 84 0.0 33 8   99.89     LegendNANA
05:00 18.0 15.8 87 0.0 28 5   99.94     LegendNANA
06:00 18.7 16.0 85 0.0 30 7   99.97     LegendNANA
07:00 19.6 16.8 84 0.0 32 8   99.97     LegendNANA
08:00 20.9 15.7 72 0.0 33 12   99.99 25   LegendNANA
09:00 22.1 15.2 65 0.0 32 11   99.96 26   LegendNANA
10:00 23.2 15.2 61 0.0 31 10   99.94 27   LegendNANA
11:00 24.0 15.4 58 0.0 33 10   99.92 28   LegendNANA
12:00 24.9 15.0 54 0.0 31 11   99.91 29   LegendNANA
13:00 25.7 15.4 53 0.0 28 10   99.86 30   LegendNANA
14:00 26.9 16.0 51 0.0 30 13   99.82 32   LegendNANA
15:00 26.8 15.8 51 0.0 30 16   99.78 31   LegendNANA
16:00 26.6 15.9 52 0.0 30 16   99.75 31   LegendNANA
17:00 26.8 16.3 53 0.0 30 13   99.75 32   LegendNANA
18:00 26.1 16.1 54 0.0 30 14   99.71 31   LegendNANA
19:00 25.0 16.1 58 0.0 30 12   99.70 30   LegendNANA
20:00 24.1 15.5 58 0.0 30 15   99.72 28   LegendNANA
21:00 23.8 15.2 59 0.0 30 14   99.73 28   LegendNANA
22:00 22.6 16.2 67 0.0 31 11   99.75 27   LegendNANA
23:00 21.8 17.3 76 0.0 31 4   99.75 27   LegendNANA

Notes on Data Quality.

Legend

  • E = Estimated
  • M = Missing
  • NA = Not Available*
  • [empty] = Indicates an unobserved value
Date modified: